Huntingburg, IN

1:47 AM EST on November 20, 2019 (GMT -0500)
Huntingburg

Weather History for KHNB - October, 2019

Change the Weather History Date:

Sunday, October 20, 2019

  Actual Average Record
Temperature  
Mean Temperature 64 °F -  
Max Temperature 73 °F 63 °F 78 °F (2003)
Min Temperature 55 °F 44 °F 33 °F (1999)
Degree Days  
Heating Degree Days 1    
Growing Degree Days 14 (Base 50)    
Moisture  
Dew Point 55 °F    
Average Humidity 82    
Maximum Humidity 100    
Minimum Humidity 46    
Precipitation  
Precipitation 0.00 in - - ()
Sea Level Pressure  
Sea Level Pressure 29.88 in    
Wind  
Wind Speed 4 mph ()    
Max Wind Speed 6 mph    
Max Gust Speed -    
Visibility 8.4 miles    
Events Fog    
Averages and records for this station are not official NWS values.
T = Trace of Precipitation, MM = Missing Value Source: Averaged Metar Reports

Daily Weather History Graph

Daily Weather History Graph

Search for Another Location

Airport or City:

Astronomy

Oct. 20, 2019 Rise Set
Actual Time 8:01 AM EDT 7:03 PM EDT
Civil Twilight 7:34 AM EDT 7:30 PM EDT
Nautical Twilight 7:03 AM EDT 8:00 PM EDT
Astronomical Twilight 6:33 AM EDT 8:31 PM EDT
Moon No Moon Rise 2:25 PM EDT
Length of Visible Light 11h 55m
Length of Day
11h 01m
Waning Gibbous, 59% of the Moon is Illuminated
Oct 20
Waning Gibbous
Oct 21
Last Quarter
Oct 27
New
Nov 4
First Quarter
Nov 12
Full

Hourly Weather History & Observations

Time (EDT) Temp. Dew Point Humidity Pressure Visibility Wind Dir Wind Speed Gust Speed Precip Events Conditions
12:56 AM 57.9 °F 55.0 °F 90% 29.81 in 10.0 mi SSE 3.5 mph - N/A   Partly Cloudy
1:56 AM 57.9 °F 55.0 °F 90% 29.81 in 10.0 mi South 4.6 mph - N/A   Mostly Cloudy
2:56 AM 57.9 °F 55.9 °F 93% 29.80 in 10.0 mi South 4.6 mph - N/A   Scattered Clouds
3:56 AM 57.0 °F 55.9 °F 96% 29.81 in 10.0 mi SSW 4.6 mph - N/A   Mostly Cloudy
4:23 AM 57.2 °F 57.2 °F 100% 29.82 in 10.0 mi South 4.6 mph - N/A   Overcast
4:56 AM 57.9 °F 57.0 °F 97% 29.82 in 10.0 mi South 5.8 mph - N/A   Overcast
5:54 AM 57.2 °F 57.2 °F 100% 29.84 in 10.0 mi SW 5.8 mph - N/A   Overcast
5:56 AM 57.9 °F 57.9 °F 100% 29.83 in 10.0 mi SW 5.8 mph - N/A   Overcast
6:56 AM 57.9 °F 57.9 °F 100% 29.86 in 9.0 mi SSW 5.8 mph - N/A   Overcast
7:31 AM 57.2 °F 57.2 °F 100% 29.86 in 5.0 mi SW 3.5 mph - N/A   Overcast
7:52 AM 57.2 °F 57.2 °F 100% 29.87 in 1.8 mi SW 4.6 mph - N/A   Overcast
7:56 AM 57.0 °F 57.0 °F 100% 29.87 in 1.0 mi SW 5.8 mph - N/A   Overcast
8:02 AM 57.2 °F 57.2 °F 100% 29.87 in 0.5 mi SW 4.6 mph - N/A Fog Fog
8:56 AM 57.0 °F 57.0 °F 100% 29.89 in 0.8 mi SW 3.5 mph - N/A   Overcast
9:06 AM 55.4 °F 55.4 °F 100% 29.90 in 1.2 mi SW 5.8 mph - N/A   Overcast
9:46 AM 57.2 °F 55.4 °F 94% 29.92 in 9.0 mi South 5.8 mph - N/A   Overcast
9:56 AM 57.9 °F 55.9 °F 93% 29.92 in 10.0 mi SSW 4.6 mph - N/A   Overcast
10:11 AM 59.0 °F 55.4 °F 88% 29.92 in 10.0 mi South 5.8 mph - N/A   Mostly Cloudy
10:44 AM 60.8 °F 55.4 °F 82% 29.92 in 10.0 mi North - - N/A   Scattered Clouds
10:56 AM 61.0 °F 55.0 °F 81% 29.91 in 10.0 mi Calm Calm - N/A   Clear
11:56 AM 66.0 °F 55.0 °F 68% 29.92 in 10.0 mi Variable 3.5 mph - N/A   Clear
12:56 PM 68.0 °F 50.0 °F 52% 29.92 in 10.0 mi Calm Calm - N/A   Overcast
1:56 PM 72.0 °F 50.0 °F 46% 29.90 in 8.0 mi Calm Calm - N/A   Scattered Clouds
2:56 PM 72.0 °F 52.0 °F 49% 29.89 in 10.0 mi SSW 4.6 mph - N/A   Overcast
3:56 PM 73.9 °F 53.1 °F 48% 29.87 in 10.0 mi Calm Calm - N/A   Clear
4:56 PM 73.9 °F 52.0 °F 46% 29.88 in 10.0 mi SSE 5.8 mph - N/A   Clear
5:56 PM 73.0 °F 52.0 °F 48% 29.88 in 10.0 mi Calm Calm - N/A   Clear
6:56 PM 69.1 °F 52.0 °F 54% 29.88 in 10.0 mi WSW 3.5 mph - N/A   Mostly Cloudy
7:56 PM 66.0 °F 53.1 °F 63% 29.90 in 10.0 mi Calm Calm - N/A   Overcast
8:56 PM 62.1 °F 53.1 °F 72% 29.90 in 10.0 mi ESE 4.6 mph - N/A   Clear
9:56 PM 62.1 °F 53.1 °F 72% 29.91 in 10.0 mi ESE 4.6 mph - N/A   Clear
10:56 PM 59.0 °F 53.1 °F 81% 29.91 in 10.0 mi ESE 5.8 mph - N/A   Clear
11:56 PM 59.0 °F 55.0 °F 87% 29.91 in 10.0 mi SE 4.6 mph - N/A   Clear